{"data":{"norad_id":58839,"epoch":"2026-09-20T14:05:21.760224Z","epoch_age_seconds":144929,"freshness":"FRESH","line1":"1 58839U 24017P   26263.58705741  .00001582  00000+0  57961-4 0  9990","line2":"2 58839  53.1627   5.0034 0001283  98.3323 261.7826 15.34389903150040","mean_motion":15.34389903,"eccentricity":0.0001283,"inclination_deg":53.1627,"raan_deg":5.0034,"arg_perigee_deg":98.3323,"mean_anomaly_deg":261.7826,"bstar":5.7961e-5,"rev_number":15004,"period_min":93.84837564328,"perigee_km":461.85556713035,"apogee_km":463.6109344367,"semimajor_km":6840.8702507835,"source":"CELESTRAK","updated_at":"2026-09-21T09:00:33.985021Z"}}